GAOFEN-13 01

Last updated on Tue Oct 14 2025 00:02:50 GMT+0000 (Coordinated Universal Time)

1 46610U 20071A 25286.65369220 .00000000 00000+0 00000+0 0 9991 2 46610 0.0173 55.4676 0038553 146.7109 173.8443 1.00268041 18444
UTC large
Height (km)
Speed (km/s)
/
Latitude / Longitude
Inclination (degrees)
Orbital Period (minutes)
Azimuth
Elevation
Range (km)
Doppler Factor

Next 0 passes for location: London (51.5072 / 0.1276)

Sorry there are no passes over London.